This demonstration page uses our WeatherBlox Daily Observations layout. Learn more.

Hourly Observations for March 6, 2015

Temp ( °F °C ) Dew Point ( °F °C ) Humidity (%) Winds ( mph kmh ) Pressure ( in mb ) Visibility ( mi km ) Precip ( " mm )
12:15 am 00:15 Clear 32 0 13 -10.8 44 44 WSW 9 15 30.3 1026 10 16.0934 0 0
12:35 am 00:35 Clear 32 0.1 12 -11 43 43 W 10 17 30.3 1026 10 16.0934 0 0
12:55 am 00:55 Clear 32 -0.2 12 -11 44 44 WSW 9 15 30.3 1026 10 16.0934 0 0
1:15 am 01:15 Clear 32 -0.2 13 -10.8 45 45 W 10 17 30.3 1026 10 16.0934 0 0
1:35 am 01:35 Clear 32 0.2 12 -11 43 43 W 12 19 30.3 1026 10 16.0934 0 0
1:55 am 01:55 Clear 32 0 13 -10.8 44 44 W 13 20 30.3 1026 10 16.0934 0 0
2:15 am 02:15 Clear 31 -0.8 13 -10.8 47 47 W 12 19 30.3 1026 10 16.0934 0 0
2:35 am 02:35 Clear 29 -1.8 13 -10.6 51 51 W 9 15 30.33 1027 10 16.0934 0 0
2:55 am 02:55 Clear 27 -2.6 13 -10.7 54 54 W 9 15 30.33 1027 10 16.0934 0 0
3:15 am 03:15 Clear 26 -3.1 13 -10.6 57 57 W 8 13 30.33 1027 10 16.0934 0 0
3:35 am 03:35 Clear 26 -3.2 13 -10.7 57 57 W 8 13 30.33 1027 10 16.0934 0 0
3:55 am 03:55 Clear 25 -3.7 13 -10.5 60 60 W 9 15 30.33 1027 10 16.0934 0 0
4:15 am 04:15 Clear 26 -3.5 14 -10.2 60 60 W 9 15 30.33 1027 10 16.0934 0 0
4:35 am 04:35 Clear 26 -3.3 14 -10.1 60 60 W 9 15 30.33 1027 10 16.0934 0 0
4:55 am 04:55 Clear 25 -3.7 13 -10.3 61 61 W 9 15 30.33 1027 10 16.0934 0 0
5:15 am 05:15 Clear 26 -3.2 14 -10 60 60 W 7 11 30.33 1027 10 16.0934 0 0
5:35 am 05:35 Clear 26 -3.1 15 -9.5 62 62 W 12 19 30.33 1027 10 16.0934 0 0
5:55 am 05:55 Clear 27 -2.7 16 -9 62 62 W 9 15 30.33 1027 10 16.0934 0 0
6:15 am 06:15 Clear 27 -2.6 17 -8.5 64 64 W 12 19 30.33 1027 10 16.0934 0 0
6:35 am 06:35 Clear 28 -2 17 -8.3 62 62 W 13 20 30.33 1027 10 16.0934 0 0
6:55 am 06:55 Clear 28 -2.5 17 -8.4 64 64 W 12 19 30.33 1027 10 16.0934 0 0
7:10 am 07:10 Sunny 27 -2.6 17 -8.3 65 65 W 10 17 30.33 1027 10 16.0934 0 0
7:35 am 07:35 Sunny 28 -2.1 18 -8 64 64 W 7 11 30.33 1027 10 16.0934 0 0
7:55 am 07:55 Sunny 30 -1.2 18 -7.6 62 62 W 8 13 30.3 1026 10 16.0934 0 0
8:15 am 08:15 Sunny 32 -0.1 19 -7.2 59 59 W 9 15 30.33 1027 10 16.0934 0 0
8:35 am 08:35 Sunny 33 0.8 19 -7 56 56 W 10 17 30.33 1027 10 16.0934 0 0
8:55 am 08:55 Sunny 35 1.7 20 -6.7 54 54 W 9 15 30.3 1026 10 16.0934 0 0
9:15 am 09:15 Sunny 37 3 20 -6.6 50 50 W 10 17 30.3 1026 10 16.0934 0 0
9:35 am 09:35 Sunny 40 4.3 21 -6.1 47 47 W 9 15 30.3 1026 10 16.0934 0 0
9:55 am 09:55 Sunny 43 6.2 20 -6.4 40 40 W 8 13 30.27 1025 10 16.0934 0 0
10:15 am 10:15 Sunny 46 7.9 20 -6.7 35 35 W 7 11 30.24 1024 10 16.0934 0 0
10:35 am 10:35 Sunny 48 8.7 20 -6.6 34 34 WNW 8 13 30.24 1024 10 16.0934 0 0
10:55 am 10:55 Sunny 49 9.6 20 -6.4 32 32 W 9 15 30.24 1024 10 16.0934 0 0
11:15 am 11:15 Sunny 50 10.1 20 -6.5 31 31 SW 6 9 30.24 1024 10 16.0934 0 0
11:35 am 11:35 Sunny 52 11.1 20 -6.5 29 29 WSW 13 20 30.24 1024 10 16.0934 0 0
11:55 am 11:55 Sunny 53 11.5 20 -6.9 27 27 WSW 9 15 30.21 1023 10 16.0934 0 0
12:15 pm 12:15 Sunny 55 13 18 -7.8 23 23 W 12 19 30.21 1023 10 16.0934 0 0
12:35 pm 12:35 Sunny 56 13.4 19 -7.5 23 23 WNW 8 13 30.18 1022 10 16.0934 0 0
12:55 pm 12:55 Sunny 56 13.5 19 -7.3 23 23 W 10 17 30.18 1022 10 16.0934 0 0
1:15 pm 13:15 Sunny 58 14.5 19 -7 22 22 W 16 26 30.15 1021 10 16.0934 0 0
1:35 pm 13:35 Sunny 59 15.2 18 -7.6 20 20 WNW 14 22 30.12 1020 10 16.0934 0 0
1:55 pm 13:55 Sunny 59 15.1 17 -8.1 20 20 WNW 12 19 30.12 1020 10 16.0934 0 0
2:15 pm 14:15 Sunny 60 15.7 18 -8 19 19 W 12 19 30.12 1020 10 16.0934 0 0
2:35 pm 14:35 Sunny 61 16.1 17 -8.5 18 18 W 21 33 30.09 1019 10 16.0934 0 0
2:55 pm 14:55 Sunny 61 16.3 15 -9.2 17 17 W 21 33 30.09 1019 10 16.0934 0 0
3:15 pm 15:15 Sunny 62 16.5 15 -9.2 16 16 WNW 12 19 30.09 1019 10 16.0934 0 0
3:35 pm 15:35 Sunny 62 16.6 15 -9.6 16 16 WNW 14 22 30.09 1019 10 16.0934 0 0
3:55 pm 15:55 Sunny 62 16.6 15 -9.6 16 16 WNW 15 24 30.09 1019 10 16.0934 0 0
4:15 pm 16:15 Sunny 62 16.6 15 -9.6 16 16 WNW 14 22 30.09 1019 10 16.0934 0 0
4:35 pm 16:35 Sunny 62 16.5 15 -9.5 16 16 W 16 26 30.09 1019 10 16.0934 0 0
4:55 pm 16:55 Sunny 62 16.5 15 -9.6 16 16 W 13 20 30.09 1019 10 16.0934 0 0
5:15 pm 17:15 Sunny 61 16 15 -9.5 16 16 WNW 14 22 30.09 1019 10 16.0934 0 0
5:35 pm 17:35 Sunny 60 15.6 16 -9 18 18 WNW 9 15 30.09 1019 10 16.0934 0 0
5:55 pm 17:55 Sunny 59 14.9 16 -8.7 19 19 WNW 7 11 30.09 1019 10 16.0934 0 0
6:15 pm 18:15 Sunny 56 13.1 16 -8.7 21 21 W 6 9 30.12 1020 10 16.0934 0 0
6:35 pm 18:35 Clear 53 11.4 16 -9 23 23 W 6 9 30.12 1020 10 16.0934 0 0
6:55 pm 18:55 Clear 49 9.6 15 -9.2 26 26 W 3 6 30.15 1021 10 16.0934 0 0
7:15 pm 19:15 Clear 49 9.7 15 -9.2 26 26 W 3 6 30.15 1021 10 16.0934 0 0
7:35 pm 19:35 Clear 48 8.8 16 -9 28 28 Calm 30.15 1021 10 16.0934 0 0
7:55 pm 19:55 Clear 44 6.5 16 -9.1 32 32 WSW 3 6 30.18 1022 10 16.0934 0 0
8:15 pm 20:15 Clear 43 6 15 -9.3 33 33 WSW 5 7 30.18 1022 10 16.0934 0 0
8:35 pm 20:35 Clear 42 5.8 15 -9.2 33 33 WSW 6 9 30.18 1022 10 16.0934 0 0
8:55 pm 20:55 Clear 45 7 15 -9.2 31 31 WSW 6 9 30.18 1022 10 16.0934 0 0
9:15 pm 21:15 Clear 40 4.6 14 -10.1 34 34 WSW 7 11 30.18 1022 10 16.0934 0 0
9:35 pm 21:35 Clear 43 6.1 15 -9.5 32 32 WSW 5 7 30.18 1022 10 16.0934 0 0
9:55 pm 21:55 Clear 44 6.4 14 -10 30 30 WSW 3 6 30.18 1022 10 16.0934 0 0
10:15 pm 22:15 Clear 42 5.3 14 -9.9 33 33 Calm 30.21 1023 10 16.0934 0 0
10:35 pm 22:35 Clear 32 0 13 -10.3 46 46 WNW 5 7 30.27 1025 10 16.0934 0 0
10:55 pm 22:55 Clear 32 0 15 -9.7 48 48 W 5 7 30.27 1025 10 16.0934 0 0
11:15 pm 23:15 Clear 33 0.7 14 -9.9 45 45 W 7 11 30.27 1025 10 16.0934 0 0
11:35 pm 23:35 Clear 35 1.5 14 -9.9 43 43 WNW 7 11 30.24 1024 10 16.0934 0 0
11:55 pm 23:55 Clear 35 1.4 14 -10.1 42 42 WNW 8 13 30.27 1025 10 16.0934 0 0

Powered by AerisWeather